Precipitable_Water
2.23 2.20 2.23 2.26 2.15 2.18 2.21 2.19 2.16 2.16 2.06 2.00 2.00 1.97 1.92 1.86 1.79 1.70 1.57 1.46 1.41 1.38 1.38 1.41 1.41 1.43 1.47 1.52 1.55 1.58 1.61 1.64 1.64 1.62 1.61 1.61 1.65 1.68 1.69 1.71 1.75 1.79 1.80 1.78 1.75 1.73 1.72 1.73 1.75 1.75 1.74 1.73 1.71 1.68 1.60 1.56 1.55 1.52 1.56 1.64 1.57 1.47 1.48 1.44 1.45 1.58 1.69 1.75 1.78 1.79 1.77 1.79 1.75 1.69 1.64 1.61 1.61 1.62 1.62 1.58 1.56 1.57 1.57 1.57 1.62
2.11 2.24 2.22 2.21 2.17 2.16 2.17 2.13 2.08 2.04 1.98 1.97 1.93 1.90 1.85 1.80 1.69 1.57 1.47 1.41 1.38 1.38 1.38 1.37 1.41 1.48 1.52 1.54 1.58 1.61 1.62 1.61 1.60 1.59 1.60 1.61 1.63 1.64 1.65 1.69 1.71 1.73 1.74 1.75 1.75 1.75 1.77 1.77 1.77 1.74 1.72 1.71 1.69 1.64 1.61 1.58 1.56 1.55 1.64 1.71 1.66 1.51 1.51 1.54 1.47 1.56 1.70 1.78 1.79 1.80 1.79 1.75 1.74 1.73 1.72 1.67 1.62 1.59 1.55 1.52 1.53 1.59 1.59 1.57 1.62
2.15 2.19 2.21 2.20 2.15 2.10 2.11 2.07 2.03 2.00 1.95 1.91 1.89 1.87 1.82 1.70 1.59 1.47 1.39 1.37 1.37 1.35 1.35 1.40 1.48 1.49 1.53 1.55 1.56 1.57 1.58 1.58 1.58 1.57 1.60 1.62 1.62 1.63 1.65 1.67 1.71 1.73 1.74 1.72 1.71 1.70 1.71 1.72 1.71 1.72 1.72 1.75 1.77 1.72 1.68 1.64 1.63 1.62 1.67 1.70 1.69 1.55 1.50 1.58 1.60 1.57 1.63 1.71 1.79 1.83 1.83 1.76 1.71 1.67 1.63 1.58 1.53 1.52 1.51 1.51 1.54 1.58 1.59 1.61 1.63
2.05 2.11 2.18 2.16 2.11 2.06 2.05 2.02 1.97 1.93 1.90 1.86 1.89 1.85 1.74 1.62 1.50 1.41 1.38 1.36 1.32 1.33 1.37 1.43 1.48 1.51 1.53 1.54 1.52 1.51 1.52 1.54 1.56 1.57 1.58 1.59 1.59 1.62 1.64 1.68 1.71 1.75 1.79 1.79 1.78 1.76 1.73 1.71 1.70 1.70 1.72 1.74 1.77 1.77 1.77 1.75 1.70 1.68 1.73 1.74 1.69 1.58 1.50 1.55 1.63 1.67 1.71 1.74 1.78 1.85 1.84 1.80 1.73 1.62 1.52 1.48 1.51 1.53 1.54 1.53 1.54 1.54 1.56 1.59 1.61
2.04 2.09 2.10 2.08 2.08 2.07 2.02 1.98 1.93 1.86 1.84 1.90 1.85 1.79 1.64 1.54 1.42 1.38 1.37 1.32 1.32 1.38 1.42 1.46 1.50 1.53 1.52 1.51 1.50 1.48 1.48 1.50 1.52 1.52 1.52 1.53 1.57 1.59 1.63 1.66 1.70 1.76 1.83 1.79 1.78 1.79 1.78 1.77 1.75 1.74 1.75 1.75 1.74 1.74 1.77 1.77 1.75 1.75 1.78 1.76 1.70 1.62 1.54 1.53 1.57 1.65 1.70 1.73 1.74 1.81 1.81 1.80 1.73 1.61 1.61 1.60 1.57 1.55 1.56 1.56 1.57 1.57 1.56 1.55 1.56
2.02 2.07 2.10 2.06 2.05 2.02 1.98 1.93 1.88 1.83 1.91 1.83 1.75 1.64 1.54 1.43 1.39 1.38 1.33 1.31 1.39 1.44 1.45 1.48 1.50 1.51 1.51 1.50 1.47 1.46 1.48 1.49 1.50 1.50 1.50 1.51 1.54 1.57 1.60 1.64 1.68 1.74 1.80 1.78 1.78 1.78 1.79 1.82 1.80 1.80 1.80 1.77 1.74 1.71 1.72 1.74 1.74 1.78 1.82 1.79 1.72 1.65 1.56 1.51 1.54 1.60 1.66 1.71 1.75 1.82 1.83 1.82 1.81 1.75 1.76 1.73 1.70 1.70 1.68 1.66 1.61 1.59 1.58 1.54 1.53
2.03 2.06 2.08 2.06 2.04 2.00 1.93 1.88 1.87 1.83 1.82 1.73 1.63 1.58 1.47 1.39 1.41 1.36 1.31 1.36 1.41 1.44 1.46 1.49 1.49 1.48 1.48 1.47 1.48 1.49 1.50 1.51 1.51 1.51 1.52 1.53 1.53 1.56 1.59 1.62 1.66 1.74 1.77 1.80 1.78 1.79 1.81 1.82 1.83 1.82 1.81 1.79 1.77 1.75 1.76 1.75 1.74 1.77 1.82 1.84 1.78 1.70 1.60 1.51 1.54 1.58 1.59 1.68 1.75 1.78 1.80 1.82 1.85 1.85 1.84 1.83 1.72 1.67 1.69 1.67 1.63 1.61 1.60 1.57 1.58
2.03 2.04 2.03 2.01 1.97 1.95 1.93 1.89 1.85 1.81 1.76 1.71 1.64 1.55 1.42 1.40 1.38 1.34 1.34 1.40 1.44 1.47 1.49 1.49 1.48 1.46 1.47 1.48 1.49 1.51 1.52 1.52 1.52 1.52 1.55 1.57 1.59 1.60 1.61 1.62 1.64 1.70 1.77 1.82 1.83 1.84 1.85 1.85 1.82 1.84 1.86 1.83 1.80 1.78 1.78 1.77 1.76 1.77 1.80 1.83 1.80 1.76 1.67 1.54 1.51 1.52 1.56 1.66 1.74 1.80 1.79 1.82 1.84 1.88 1.88 1.83 1.75 1.66 1.64 1.66 1.63 1.63 1.61 1.62 1.63
1.96 1.99 1.98 1.96 1.92 1.90 1.89 1.87 1.84 1.78 1.69 1.61 1.55 1.48 1.40 1.39 1.39 1.36 1.38 1.44 1.48 1.49 1.48 1.48 1.47 1.46 1.49 1.52 1.53 1.54 1.54 1.54 1.54 1.55 1.58 1.62 1.64 1.66 1.68 1.69 1.70 1.73 1.76 1.80 1.83 1.83 1.84 1.82 1.82 1.82 1.82 1.80 1.80 1.80 1.82 1.82 1.81 1.82 1.84 1.86 1.86 1.88 1.78 1.60 1.46 1.47 1.58 1.63 1.68 1.75 1.79 1.82 1.90 1.88 1.95 1.91 1.80 1.72 1.65 1.64 1.64 1.66 1.72 1.71 1.64
1.93 1.96 1.96 1.97 1.90 1.87 1.88 1.87 1.82 1.73 1.64 1.55 1.47 1.43 1.37 1.39 1.40 1.38 1.42 1.46 1.48 1.46 1.47 1.51 1.50 1.50 1.55 1.57 1.57 1.58 1.58 1.58 1.58 1.58 1.61 1.64 1.66 1.67 1.71 1.74 1.75 1.75 1.74 1.75 1.79 1.81 1.80 1.79 1.78 1.80 1.81 1.81 1.82 1.83 1.83 1.84 1.84 1.85 1.86 1.88 1.91 1.92 1.90 1.72 1.48 1.38 1.52 1.63 1.66 1.69 1.76 1.84 1.89 1.88 1.88 1.85 1.83 1.72 1.67 1.66 1.67 1.69 1.68 1.66 1.65
1.93 1.93 1.95 1.97 1.93 1.85 1.85 1.83 1.76 1.70 1.60 1.49 1.43 1.39 1.39 1.43 1.40 1.39 1.43 1.45 1.44 1.44 1.49 1.53 1.53 1.54 1.58 1.59 1.59 1.62 1.64 1.65 1.66 1.68 1.69 1.70 1.71 1.72 1.72 1.76 1.77 1.78 1.79 1.81 1.81 1.79 1.81 1.83 1.82 1.80 1.82 1.85 1.85 1.86 1.85 1.83 1.83 1.85 1.87 1.90 1.91 1.90 1.88 1.85 1.68 1.43 1.41 1.56 1.66 1.72 1.70 1.78 1.89 1.87 1.86 1.90 1.83 1.74 1.69 1.64 1.62 1.61 1.63 1.68 1.72
1.90 1.92 1.93 1.93 1.93 1.88 1.79 1.76 1.74 1.67 1.56 1.46 1.42 1.40 1.43 1.42 1.39 1.39 1.43 1.43 1.43 1.46 1.51 1.52 1.53 1.54 1.55 1.57 1.57 1.61 1.66 1.72 1.75 1.77 1.77 1.77 1.77 1.76 1.75 1.73 1.75 1.77 1.80 1.82 1.83 1.84 1.85 1.84 1.84 1.79 1.79 1.82 1.82 1.84 1.86 1.83 1.84 1.85 1.87 1.86 1.88 1.90 1.92 1.92 1.86 1.64 1.43 1.44 1.58 1.73 1.74 1.82 1.86 1.85 1.84 1.82 1.86 1.74 1.72 1.69 1.65 1.61 1.61 1.62 1.67
1.85 1.90 1.95 1.93 1.92 1.89 1.78 1.71 1.68 1.62 1.52 1.45 1.44 1.44 1.42 1.41 1.40 1.40 1.42 1.43 1.45 1.50 1.53 1.52 1.51 1.55 1.56 1.58 1.60 1.63 1.68 1.73 1.77 1.81 1.84 1.82 1.81 1.82 1.80 1.82 1.81 1.79 1.77 1.77 1.78 1.80 1.80 1.78 1.74 1.74 1.74 1.75 1.76 1.79 1.82 1.82 1.83 1.87 1.89 1.88 1.86 1.89 1.90 1.89 1.91 1.83 1.65 1.48 1.51 1.58 1.66 1.74 1.81 1.80 1.82 1.81 1.80 1.75 1.68 1.66 1.67 1.64 1.62 1.61 1.61
1.80 1.82 1.91 1.92 1.92 1.91 1.81 1.72 1.64 1.57 1.52 1.49 1.46 1.44 1.42 1.43 1.43 1.42 1.43 1.45 1.49 1.52 1.53 1.52 1.52 1.55 1.56 1.57 1.60 1.63 1.68 1.71 1.75 1.81 1.84 1.87 1.86 1.85 1.83 1.83 1.80 1.79 1.75 1.73 1.74 1.76 1.77 1.75 1.73 1.72 1.72 1.71 1.71 1.75 1.79 1.80 1.80 1.82 1.85 1.87 1.87 1.87 1.88 1.87 1.91 1.90 1.81 1.64 1.51 1.54 1.60 1.69 1.74 1.76 1.83 1.71 1.76 1.71 1.61 1.61 1.66 1.66 1.66 1.64 1.62
1.80 1.78 1.87 1.90 1.93 1.90 1.84 1.74 1.64 1.57 1.53 1.51 1.48 1.46 1.45 1.47 1.45 1.44 1.45 1.48 1.52 1.54 1.53 1.51 1.52 1.53 1.53 1.54 1.57 1.60 1.64 1.67 1.69 1.75 1.82 1.85 1.86 1.81 1.78 1.77 1.72 1.68 1.69 1.73 1.74 1.74 1.73 1.71 1.69 1.68 1.70 1.73 1.74 1.76 1.75 1.77 1.77 1.79 1.81 1.84 1.88 1.89 1.81 1.83 1.85 1.91 1.90 1.80 1.63 1.56 1.57 1.64 1.65 1.74 1.76 1.68 1.61 1.62 1.59 1.60 1.63 1.64 1.63 1.64 1.61
1.83 1.77 1.84 1.91 1.93 1.88 1.85 1.80 1.74 1.66 1.58 1.53 1.49 1.45 1.46 1.48 1.48 1.47 1.48 1.51 1.54 1.55 1.52 1.48 1.50 1.51 1.50 1.52 1.55 1.57 1.60 1.62 1.64 1.74 1.83 1.84 1.82 1.78 1.78 1.77 1.76 1.76 1.72 1.71 1.70 1.70 1.70 1.68 1.66 1.69 1.73 1.77 1.79 1.78 1.79 1.80 1.81 1.82 1.84 1.88 1.90 1.89 1.85 1.83 1.85 1.85 1.90 1.90 1.78 1.63 1.60 1.61 1.59 1.70 1.70 1.67 1.58 1.56 1.57 1.58 1.63 1.63 1.61 1.58 1.55
1.79 1.80 1.79 1.83 1.88 1.89 1.83 1.81 1.78 1.74 1.67 1.58 1.52 1.47 1.49 1.51 1.50 1.49 1.51 1.52 1.54 1.56 1.52 1.49 1.50 1.49 1.50 1.52 1.52 1.53 1.56 1.57 1.57 1.68 1.80 1.81 1.77 1.78 1.78 1.73 1.68 1.66 1.66 1.68 1.68 1.66 1.64 1.62 1.63 1.65 1.70 1.73 1.74 1.73 1.73 1.75 1.79 1.82 1.85 1.87 1.87 1.84 1.83 1.84 1.83 1.85 1.89 1.92 1.89 1.75 1.66 1.69 1.59 1.70 1.66 1.60 1.62 1.69 1.59 1.57 1.64 1.65 1.60 1.55 1.53
1.77 1.78 1.77 1.79 1.87 1.89 1.84 1.80 1.77 1.75 1.71 1.64 1.57 1.54 1.53 1.53 1.52 1.51 1.52 1.52 1.54 1.54 1.54 1.53 1.49 1.49 1.48 1.50 1.49 1.49 1.52 1.53 1.51 1.59 1.70 1.73 1.73 1.71 1.69 1.64 1.63 1.60 1.60 1.59 1.57 1.55 1.55 1.57 1.58 1.60 1.64 1.66 1.67 1.66 1.65 1.65 1.68 1.72 1.75 1.80 1.83 1.81 1.78 1.76 1.81 1.83 1.87 1.92 1.95 1.89 1.74 1.72 1.68 1.72 1.63 1.58 1.57 1.57 1.57 1.59 1.63 1.63 1.61 1.55 1.50
1.74 1.76 1.78 1.77 1.81 1.85 1.81 1.81 1.78 1.74 1.72 1.68 1.63 1.61 1.59 1.57 1.54 1.52 1.53 1.50 1.50 1.52 1.53 1.58 1.50 1.47 1.47 1.47 1.45 1.45 1.48 1.50 1.49 1.55 1.61 1.62 1.62 1.62 1.56 1.54 1.51 1.51 1.50 1.48 1.46 1.47 1.48 1.50 1.52 1.57 1.63 1.66 1.66 1.66 1.63 1.62 1.66 1.65 1.64 1.66 1.64 1.64 1.65 1.69 1.70 1.77 1.80 1.86 1.93 1.94 1.84 1.71 1.75 1.76 1.71 1.62 1.60 1.54 1.53 1.55 1.61 1.63 1.62 1.59 1.50
1.71 1.72 1.73 1.76 1.80 1.79 1.80 1.78 1.78 1.75 1.72 1.69 1.66 1.63 1.60 1.59 1.55 1.51 1.52 1.51 1.47 1.50 1.56 1.60 1.51 1.47 1.44 1.44 1.44 1.43 1.45 1.51 1.52 1.55 1.60 1.59 1.56 1.59 1.54 1.52 1.49 1.48 1.48 1.45 1.45 1.46 1.50 1.51 1.53 1.58 1.63 1.67 1.67 1.65 1.65 1.60 1.60 1.67 1.65 1.63 1.60 1.53 1.61 1.61 1.59 1.65 1.76 1.80 1.83 1.89 1.86 1.77 1.77 1.80 1.78 1.68 1.66 1.61 1.55 1.54 1.55 1.59 1.60 1.61 1.56
1.65 1.66 1.69 1.72 1.76 1.73 1.76 1.77 1.74 1.74 1.71 1.68 1.65 1.63 1.61 1.57 1.53 1.51 1.50 1.49 1.47 1.51 1.59 1.60 1.52 1.47 1.44 1.42 1.41 1.43 1.47 1.52 1.56 1.55 1.59 1.62 1.59 1.62 1.63 1.61 1.56 1.51 1.47 1.45 1.45 1.49 1.54 1.56 1.59 1.61 1.67 1.69 1.66 1.66 1.62 1.61 1.59 1.64 1.61 1.63 1.55 1.58 1.54 1.54 1.54 1.60 1.65 1.72 1.77 1.83 1.83 1.80 1.79 1.85 1.84 1.76 1.69 1.62 1.59 1.59 1.54 1.55 1.54 1.59 1.54
1.53 1.57 1.66 1.70 1.70 1.71 1.71 1.73 1.74 1.71 1.69 1.66 1.63 1.62 1.60 1.56 1.54 1.52 1.50 1.49 1.48 1.56 1.62 1.61 1.56 1.53 1.46 1.43 1.44 1.44 1.46 1.53 1.58 1.60 1.62 1.66 1.66 1.64 1.66 1.66 1.59 1.54 1.53 1.51 1.51 1.55 1.57 1.62 1.66 1.69 1.70 1.72 1.69 1.68 1.64 1.56 1.56 1.55 1.56 1.57 1.60 1.55 1.52 1.48 1.50 1.53 1.57 1.66 1.71 1.78 1.76 1.79 1.80 1.87 1.89 1.88 1.77 1.68 1.61 1.60 1.57 1.56 1.55 1.52 1.55
1.46 1.52 1.57 1.63 1.67 1.69 1.71 1.68 1.70 1.71 1.66 1.64 1.61 1.58 1.57 1.57 1.56 1.53 1.54 1.53 1.54 1.63 1.68 1.63 1.56 1.55 1.55 1.47 1.45 1.45 1.50 1.56 1.60 1.63 1.66 1.65 1.69 1.69 1.67 1.66 1.61 1.58 1.56 1.56 1.57 1.60 1.63 1.67 1.69 1.71 1.73 1.71 1.72 1.69 1.64 1.55 1.51 1.51 1.50 1.55 1.54 1.51 1.45 1.42 1.42 1.48 1.54 1.57 1.63 1.67 1.71 1.75 1.79 1.84 1.88 1.91 1.87 1.77 1.68 1.66 1.63 1.62 1.57 1.57 1.60
1.43 1.47 1.50 1.61 1.65 1.65 1.69 1.70 1.67 1.69 1.63 1.60 1.58 1.55 1.53 1.56 1.56 1.53 1.57 1.55 1.59 1.68 1.69 1.64 1.58 1.55 1.52 1.52 1.48 1.47 1.53 1.58 1.60 1.63 1.70 1.77 1.79 1.75 1.74 1.73 1.70 1.63 1.61 1.60 1.58 1.59 1.61 1.65 1.66 1.69 1.69 1.66 1.68 1.66 1.60 1.53 1.46 1.45 1.43 1.40 1.40 1.40 1.38 1.37 1.38 1.41 1.46 1.57 1.60 1.55 1.64 1.70 1.76 1.80 1.87 1.91 1.92 1.90 1.78 1.67 1.66 1.66 1.63 1.64 1.58
1.46 1.51 1.53 1.54 1.58 1.63 1.66 1.67 1.70 1.70 1.63 1.59 1.55 1.51 1.52 1.54 1.58 1.55 1.55 1.55 1.62 1.69 1.69 1.63 1.61 1.58 1.55 1.51 1.50 1.50 1.53 1.59 1.62 1.63 1.67 1.73 1.78 1.79 1.78 1.81 1.78 1.72 1.67 1.63 1.57 1.55 1.57 1.61 1.63 1.64 1.66 1.65 1.65 1.65 1.61 1.51 1.42 1.35 1.32 1.29 1.26 1.24 1.25 1.27 1.28 1.31 1.39 1.43 1.53 1.51 1.57 1.65 1.72 1.79 1.85 1.91 1.92 1.89 1.87 1.79 1.65 1.68 1.66 1.62 1.57
1.49 1.42 1.45 1.51 1.55 1.62 1.64 1.66 1.68 1.68 1.62 1.58 1.55 1.54 1.53 1.47 1.51 1.52 1.52 1.59 1.66 1.67 1.67 1.63 1.62 1.59 1.55 1.51 1.52 1.51 1.53 1.59 1.62 1.62 1.67 1.73 1.74 1.77 1.79 1.80 1.78 1.72 1.75 1.68 1.63 1.58 1.56 1.56 1.57 1.61 1.64 1.67 1.66 1.66 1.63 1.54 1.40 1.35 1.33 1.28 1.24 1.23 1.19 1.17 1.23 1.27 1.34 1.37 1.43 1.43 1.50 1.60 1.68 1.74 1.83 1.92 1.92 1.89 1.88 1.88 1.82 1.68 1.66 1.61 1.58
1.38 1.38 1.45 1.49 1.55 1.61 1.64 1.66 1.63 1.62 1.57 1.58 1.58 1.55 1.50 1.48 1.50 1.52 1.52 1.59 1.64 1.61 1.61 1.62 1.62 1.60 1.55 1.54 1.50 1.50 1.52 1.57 1.59 1.64 1.64 1.71 1.71 1.76 1.76 1.77 1.75 1.73 1.76 1.74 1.69 1.68 1.62 1.58 1.60 1.64 1.67 1.66 1.66 1.66 1.65 1.59 1.47 1.38 1.37 1.33 1.26 1.25 1.24 1.13 1.15 1.21 1.29 1.35 1.37 1.37 1.40 1.48 1.60 1.71 1.80 1.87 1.89 1.89 1.90 1.85 1.85 1.81 1.74 1.70 1.64
1.35 1.36 1.40 1.45 1.49 1.54 1.60 1.59 1.58 1.57 1.53 1.56 1.54 1.51 1.51 1.49 1.51 1.56 1.57 1.59 1.58 1.56 1.57 1.60 1.62 1.58 1.56 1.56 1.57 1.56 1.53 1.52 1.55 1.59 1.62 1.68 1.69 1.75 1.77 1.74 1.73 1.75 1.78 1.70 1.68 1.68 1.64 1.62 1.61 1.64 1.62 1.64 1.62 1.63 1.64 1.59 1.50 1.44 1.38 1.33 1.26 1.21 1.23 1.15 1.08 1.14 1.23 1.33 1.37 1.38 1.38 1.40 1.48 1.66 1.77 1.83 1.86 1.92 1.92 1.87 1.86 1.85 1.87 1.75 1.79
1.27 1.30 1.34 1.38 1.43 1.50 1.54 1.51 1.51 1.52 1.55 1.54 1.50 1.53 1.53 1.51 1.52 1.54 1.52 1.56 1.54 1.54 1.56 1.58 1.56 1.56 1.57 1.57 1.58 1.52 1.53 1.54 1.54 1.58 1.66 1.65 1.71 1.75 1.73 1.70 1.71 1.72 1.73 1.71 1.65 1.61 1.60 1.61 1.62 1.61 1.62 1.60 1.63 1.63 1.64 1.61 1.52 1.46 1.39 1.32 1.25 1.22 1.22 1.15 1.07 1.12 1.18 1.29 1.37 1.37 1.34 1.36 1.41 1.57 1.71 1.77 1.85 1.93 1.92 1.90 1.86 1.82 1.81 1.81 1.79
1.26 1.31 1.33 1.36 1.42 1.48 1.46 1.44 1.45 1.47 1.50 1.49 1.48 1.48 1.49 1.47 1.50 1.51 1.53 1.55 1.52 1.54 1.56 1.54 1.52 1.51 1.51 1.54 1.55 1.55 1.55 1.56 1.58 1.63 1.63 1.66 1.71 1.70 1.68 1.68 1.68 1.70 1.71 1.65 1.65 1.60 1.56 1.58 1.60 1.61 1.59 1.59 1.62 1.64 1.64 1.57 1.48 1.44 1.40 1.33 1.27 1.25 1.22 1.13 1.03 1.04 1.16 1.26 1.35 1.36 1.29 1.36 1.42 1.52 1.64 1.73 1.76 1.80 1.88 1.89 1.88 1.83 1.81 1.83 1.81
1.29 1.25 1.30 1.33 1.39 1.41 1.40 1.42 1.43 1.44 1.45 1.41 1.43 1.43 1.46 1.45 1.48 1.50 1.52 1.51 1.53 1.54 1.53 1.50 1.48 1.48 1.49 1.51 1.54 1.56 1.57 1.59 1.61 1.63 1.64 1.67 1.68 1.67 1.66 1.67 1.66 1.68 1.70 1.68 1.68 1.63 1.61 1.59 1.59 1.59 1.59 1.61 1.63 1.64 1.62 1.52 1.45 1.42 1.39 1.32 1.29 1.28 1.19 1.11 0.98 1.00 1.11 1.31 1.36 1.36 1.35 1.32 1.41 1.47 1.55 1.69 1.71 1.79 1.82 1.85 1.84 1.86 1.85 1.83 1.85
1.24 1.23 1.28 1.35 1.34 1.34 1.36 1.40 1.41 1.41 1.39 1.37 1.40 1.39 1.41 1.44 1.47 1.49 1.50 1.52 1.54 1.52 1.50 1.49 1.47 1.47 1.48 1.49 1.51 1.54 1.57 1.59 1.60 1.63 1.64 1.65 1.65 1.66 1.67 1.64 1.64 1.68 1.70 1.68 1.67 1.67 1.66 1.64 1.63 1.65 1.67 1.67 1.64 1.63 1.60 1.50 1.42 1.38 1.35 1.30 1.28 1.25 1.20 1.08 0.95 1.00 1.10 1.29 1.35 1.38 1.35 1.42 1.44 1.66 1.75 1.74 1.74 1.76 1.81 1.79 1.82 1.85 1.85 1.85 1.86
1.24 1.27 1.29 1.31 1.30 1.33 1.34 1.38 1.41 1.40 1.37 1.36 1.37 1.40 1.42 1.44 1.45 1.47 1.50 1.53 1.54 1.52 1.48 1.47 1.47 1.48 1.49 1.50 1.51 1.54 1.55 1.54 1.59 1.64 1.65 1.64 1.63 1.62 1.63 1.64 1.66 1.67 1.68 1.69 1.68 1.69 1.68 1.66 1.66 1.68 1.68 1.67 1.61 1.58 1.56 1.49 1.40 1.37 1.34 1.30 1.25 1.24 1.21 1.06 0.97 1.03 1.18 1.27 1.33 1.37 1.37 1.40 1.53 1.59 1.68 1.74 1.75 1.77 1.73 1.75 1.76 1.77 1.79 1.81 1.82
1.19 1.25 1.29 1.26 1.30 1.35 1.37 1.38 1.39 1.38 1.38 1.39 1.39 1.38 1.40 1.41 1.45 1.47 1.50 1.51 1.50 1.48 1.47 1.48 1.47 1.48 1.49 1.51 1.53 1.55 1.56 1.58 1.58 1.62 1.65 1.64 1.62 1.62 1.60 1.62 1.67 1.68 1.68 1.69 1.66 1.70 1.69 1.68 1.63 1.60 1.59 1.57 1.53 1.50 1.43 1.39 1.42 1.39 1.34 1.25 1.22 1.23 1.18 0.99 0.98 1.09 1.20 1.30 1.36 1.35 1.36 1.36 1.47 1.60 1.67 1.67 1.66 1.68 1.74 1.72 1.69 1.72 1.77 1.81 1.82
1.22 1.21 1.18 1.24 1.31 1.30 1.34 1.33 1.36 1.36 1.38 1.36 1.37 1.36 1.39 1.40 1.42 1.43 1.45 1.46 1.46 1.44 1.45 1.47 1.45 1.47 1.49 1.51 1.53 1.55 1.56 1.57 1.58 1.60 1.63 1.63 1.62 1.61 1.63 1.66 1.69 1.68 1.66 1.68 1.66 1.69 1.70 1.65 1.62 1.50 1.49 1.51 1.49 1.45 1.39 1.36 1.36 1.32 1.30 1.25 1.23 1.22 1.10 0.96 1.02 1.16 1.26 1.40 1.36 1.39 1.37 1.36 1.37 1.46 1.54 1.62 1.59 1.60 1.67 1.73 1.75 1.75 1.75 1.77 1.82
1.16 1.17 1.22 1.26 1.23 1.29 1.33 1.28 1.32 1.31 1.33 1.35 1.36 1.37 1.39 1.39 1.41 1.41 1.40 1.42 1.43 1.41 1.43 1.44 1.44 1.47 1.48 1.49 1.52 1.53 1.55 1.57 1.58 1.60 1.59 1.63 1.62 1.61 1.65 1.70 1.70 1.68 1.68 1.68 1.68 1.66 1.66 1.62 1.59 1.50 1.42 1.43 1.43 1.43 1.39 1.35 1.33 1.28 1.29 1.26 1.23 1.18 1.10 0.99 1.04 1.21 1.32 1.35 1.38 1.39 1.47 1.47 1.43 1.43 1.47 1.54 1.58 1.60 1.60 1.65 1.68 1.69 1.70 1.75 1.79
1.17 1.17 1.15 1.18 1.20 1.24 1.29 1.27 1.24 1.27 1.31 1.34 1.37 1.37 1.38 1.37 1.37 1.37 1.38 1.39 1.39 1.39 1.43 1.43 1.44 1.45 1.47 1.48 1.52 1.53 1.55 1.58 1.60 1.63 1.62 1.63 1.65 1.66 1.69 1.71 1.73 1.68 1.66 1.67 1.66 1.68 1.63 1.57 1.52 1.51 1.46 1.41 1.41 1.38 1.36 1.35 1.32 1.33 1.31 1.24 1.19 1.13 1.03 0.96 1.10 1.22 1.32 1.32 1.35 1.38 1.43 1.50 1.50 1.46 1.52 1.56 1.57 1.58 1.53 1.53 1.62 1.66 1.66 1.70 1.76
1.20 1.19 1.19 1.17 1.16 1.22 1.25 1.26 1.28 1.30 1.32 1.33 1.35 1.36 1.37 1.37 1.36 1.35 1.36 1.35 1.36 1.39 1.41 1.42 1.41 1.44 1.47 1.45 1.50 1.52 1.55 1.59 1.64 1.67 1.67 1.69 1.70 1.70 1.71 1.74 1.71 1.68 1.66 1.66 1.65 1.67 1.63 1.53 1.46 1.48 1.48 1.43 1.41 1.34 1.29 1.34 1.28 1.27 1.28 1.23 1.17 1.13 0.98 1.05 1.16 1.28 1.30 1.31 1.33 1.35 1.37 1.43 1.50 1.52 1.52 1.53 1.54 1.53 1.55 1.53 1.54 1.61 1.65 1.67 1.72
1.20 1.20 1.20 1.21 1.23 1.23 1.25 1.25 1.27 1.29 1.30 1.33 1.36 1.36 1.36 1.35 1.35 1.31 1.31 1.32 1.35 1.39 1.41 1.38 1.39 1.43 1.43 1.45 1.47 1.49 1.54 1.63 1.68 1.71 1.68 1.70 1.71 1.72 1.70 1.72 1.72 1.69 1.68 1.65 1.62 1.60 1.54 1.50 1.44 1.45 1.50 1.48 1.41 1.34 1.31 1.30 1.28 1.21 1.20 1.19 1.20 1.13 1.04 1.15 1.21 1.24 1.29 1.34 1.37 1.34 1.36 1.34 1.40 1.45 1.45 1.45 1.46 1.48 1.51 1.55 1.56 1.61 1.71 1.72 1.70
1.21 1.20 1.19 1.21 1.20 1.22 1.23 1.24 1.25 1.28 1.31 1.32 1.34 1.30 1.28 1.24 1.19 1.23 1.22 1.24 1.30 1.33 1.36 1.36 1.39 1.40 1.43 1.44 1.45 1.47 1.56 1.66 1.71 1.72 1.71 1.71 1.71 1.72 1.72 1.74 1.72 1.70 1.66 1.61 1.56 1.53 1.44 1.42 1.43 1.43 1.41 1.42 1.44 1.43 1.38 1.31 1.22 1.16 1.16 1.20 1.22 1.14 1.08 1.19 1.21 1.22 1.23 1.33 1.38 1.37 1.36 1.35 1.34 1.35 1.36 1.34 1.34 1.37 1.43 1.51 1.55 1.56 1.55 1.59 1.63
1.21 1.18 1.17 1.16 1.17 1.16 1.16 1.13 1.20 1.26 1.24 1.22 1.21 1.19 1.13 1.13 1.16 1.14 1.11 1.18 1.21 1.28 1.29 1.33 1.36 1.40 1.43 1.44 1.45 1.49 1.56 1.64 1.68 1.69 1.68 1.70 1.72 1.73 1.73 1.73 1.74 1.70 1.67 1.61 1.58 1.50 1.48 1.46 1.46 1.45 1.38 1.34 1.37 1.41 1.36 1.25 1.09 1.05 1.16 1.20 1.20 1.17 1.22 1.22 1.22 1.20 1.22 1.34 1.38 1.36 1.37 1.33 1.28 1.25 1.24 1.25 1.26 1.29 1.36 1.42 1.46 1.46 1.48 1.52 1.56
1.16 1.18 1.13 1.13 1.15 1.17 1.14 1.14 1.21 1.21 1.19 1.17 1.15 1.15 1.15 1.12 1.09 1.10 1.14 1.18 1.18 1.19 1.20 1.29 1.33 1.39 1.43 1.43 1.45 1.51 1.56 1.60 1.64 1.67 1.68 1.69 1.69 1.69 1.69 1.69 1.71 1.70 1.68 1.65 1.59 1.50 1.44 1.42 1.42 1.37 1.42 1.36 1.34 1.36 1.27 1.16 1.05 1.08 1.05 1.09 1.14 1.17 1.22 1.22 1.17 1.18 1.24 1.33 1.36 1.35 1.36 1.33 1.27 1.23 1.17 1.16 1.15 1.23 1.28 1.28 1.31 1.34 1.38 1.43 1.44
1.18 1.14 1.16 1.16 1.15 1.15 1.15 1.17 1.18 1.15 1.15 1.17 1.15 1.10 1.15 1.18 1.14 1.15 1.18 1.21 1.31 1.31 1.29 1.35 1.38 1.37 1.41 1.43 1.47 1.52 1.55 1.57 1.61 1.65 1.65 1.68 1.68 1.69 1.67 1.70 1.70 1.70 1.62 1.56 1.54 1.46 1.43 1.39 1.38 1.33 1.34 1.41 1.37 1.39 1.25 1.22 1.13 1.19 1.19 1.08 1.02 1.01 1.13 1.15 1.15 1.17 1.25 1.30 1.33 1.34 1.34 1.32 1.26 1.25 1.19 1.17 1.16 1.19 1.20 1.22 1.20 1.19 1.17 1.20 1.30
1.17 1.14 1.14 1.12 1.14 1.12 1.13 1.14 1.14 1.14 1.14 1.14 1.12 1.15 1.18 1.21 1.23 1.24 1.27 1.26 1.26 1.33 1.35 1.37 1.36 1.34 1.32 1.40 1.46 1.52 1.55 1.56 1.60 1.62 1.64 1.66 1.68 1.68 1.71 1.71 1.70 1.69 1.62 1.53 1.49 1.43 1.41 1.39 1.39 1.40 1.40 1.27 1.33 1.32 1.31 1.25 1.21 1.18 0.96 1.02 1.06 1.00 0.94 1.00 1.05 1.15 1.24 1.25 1.27 1.31 1.31 1.28 1.27 1.24 1.20 1.14 1.12 1.17 1.19 1.20 1.17 1.16 1.14 1.14 1.15
1.11 1.09 1.10 1.11 1.11 1.08 1.11 1.12 1.12 1.12 1.13 1.14 1.14 1.18 1.19 1.20 1.22 1.25 1.28 1.26 1.29 1.27 1.24 1.22 1.27 1.28 1.29 1.31 1.35 1.47 1.52 1.54 1.58 1.59 1.60 1.61 1.66 1.69 1.71 1.72 1.69 1.65 1.62 1.55 1.48 1.42 1.42 1.42 1.43 1.42 1.40 1.36 1.32 1.29 1.24 1.23 1.18 1.26 1.16 1.00 0.99 0.90 0.94 1.06 1.08 1.12 1.23 1.22 1.25 1.28 1.29 1.27 1.24 1.21 1.15 1.10 1.12 1.15 1.17 1.18 1.18 1.17 1.15 1.15 1.12
1.08 1.09 1.12 1.12 1.11 1.12 1.13 1.14 1.14 1.15 1.14 1.15 1.17 1.18 1.13 1.10 1.09 1.05 1.00 0.99 0.98 1.02 0.99 1.04 1.13 1.16 1.17 1.29 1.36 1.40 1.46 1.50 1.54 1.56 1.58 1.60 1.62 1.68 1.72 1.72 1.68 1.63 1.61 1.57 1.51 1.45 1.43 1.42 1.46 1.44 1.43 1.48 1.40 1.23 1.09 1.16 1.17 1.20 1.21 1.23 1.19 1.05 1.01 1.10 1.04 0.97 1.16 1.21 1.23 1.23 1.24 1.25 1.25 1.19 1.17 1.13 1.11 1.13 1.15 1.14 1.15 1.17 1.18 1.15 1.13
1.04 1.11 1.14 1.13 1.14 1.14 1.14 1.14 1.12 1.11 1.15 1.17 1.19 1.17 1.13 1.12 1.07 1.01 0.98 0.95 0.92 0.99 1.11 1.16 1.18 1.25 1.29 1.28 1.31 1.38 1.43 1.45 1.50 1.53 1.55 1.59 1.61 1.66 1.70 1.72 1.69 1.65 1.66 1.60 1.49 1.43 1.43 1.46 1.50 1.46 1.48 1.48 1.40 1.14 1.05 1.05 1.10 1.15 1.17 1.19 1.22 1.27 1.24 1.09 1.00 1.00 0.89 1.09 1.18 1.20 1.21 1.25 1.25 1.20 1.16 1.13 1.12 1.11 1.13 1.14 1.15 1.17 1.19 1.18 1.18
1.02 1.11 1.10 1.11 1.11 1.11 1.13 1.13 1.15 1.14 1.16 1.17 1.16 1.16 1.09 1.07 1.05 1.03 1.01 0.98 0.96 0.99 1.08 1.13 1.21 1.26 1.26 1.28 1.31 1.33 1.39 1.43 1.47 1.51 1.54 1.56 1.58 1.62 1.68 1.70 1.67 1.67 1.65 1.57 1.49 1.46 1.47 1.51 1.50 1.50 1.52 1.46 1.33 1.19 1.08 1.06 0.95 1.03 1.15 1.15 1.21 1.28 1.30 1.27 1.21 1.05 1.01 0.93 1.02 1.19 1.23 1.25 1.26 1.25 1.22 1.17 1.16 1.13 1.12 1.15 1.16 1.16 1.17 1.20 1.22
1.04 1.06 1.04 1.05 1.07 1.11 1.13 1.16 1.16 1.16 1.17 1.17 1.12 1.12 1.10 1.07 1.05 1.04 0.99 1.02 1.05 1.07 1.13 1.16 1.16 1.20 1.18 1.25 1.28 1.31 1.35 1.40 1.45 1.48 1.51 1.54 1.56 1.58 1.64 1.66 1.66 1.66 1.65 1.59 1.52 1.48 1.45 1.45 1.44 1.44 1.41 1.39 1.37 1.32 1.19 1.07 1.03 1.07 1.10 1.11 1.15 1.14 1.18 1.23 1.24 1.20 1.05 0.96 0.99 1.01 1.08 1.22 1.25 1.27 1.27 1.26 1.24 1.20 1.17 1.17 1.21 1.21 1.19 1.19 1.22
1.00 1.03 1.06 1.09 1.11 1.13 1.12 1.13 1.12 1.15 1.17 1.15 1.12 1.11 1.11 1.11 1.07 1.03 0.97 1.00 1.05 1.09 1.11 1.09 1.10 1.14 1.10 1.16 1.22 1.27 1.31 1.35 1.40 1.45 1.47 1.51 1.54 1.58 1.61 1.61 1.63 1.66 1.65 1.60 1.54 1.48 1.46 1.46 1.46 1.42 1.42 1.38 1.40 1.32 1.21 1.13 1.10 1.14 1.16 1.17 1.09 1.10 1.09 1.09 1.11 1.12 1.11 1.08 0.96 1.00 1.06 1.08 1.03 1.18 1.27 1.28 1.28 1.28 1.27 1.26 1.24 1.25 1.26 1.26 1.26
0.98 1.02 1.04 1.07 1.09 1.10 1.10 1.09 1.11 1.16 1.17 1.14 1.11 1.07 1.11 1.11 1.04 1.02 0.99 0.98 1.02 1.04 1.03 1.04 1.07 1.09 1.05 1.09 1.14 1.20 1.28 1.31 1.38 1.42 1.45 1.48 1.52 1.57 1.59 1.60 1.63 1.64 1.65 1.62 1.54 1.49 1.48 1.46 1.45 1.45 1.44 1.38 1.34 1.30 1.24 1.16 1.14 1.16 1.16 1.17 1.13 1.10 1.04 0.98 1.00 1.02 1.02 0.99 0.97 1.00 1.07 1.10 1.09 1.09 1.20 1.25 1.29 1.31 1.33 1.34 1.29 1.29 1.32 1.32 1.33
Wind_Speed
17 18 20 20 21 21 21 21 20 21 21 20 20 19 19 18 18 17 17 16 16 15 15 14 14 14 13 13 13 13 13 13 12 12 12 12 12 12 12 12 12 11 11 11 10 10 10 9 9 8 8 8 8 8 9 8 8 9 9 9 8 8 9 9 9 9 9 9 9 9 8 8 8 8 7 7 6 6 6 6 6 6 7 7 7
17 18 19 20 20 20 21 20 21 21 21 20 20 19 18 18 17 17 17 16 15 15 14 14 14 14 14 13 13 13 13 12 12 12 12 12 12 12 12 12 12 11 11 11 10 10 9 9 9 9 9 9 9 9 9 9 9 9 9 9 9 9 9 9 9 9 8 9 9 9 9 9 8 8 8 7 7 7 7 7 7 7 7 8 8
17 18 19 19 19 20 20 20 21 21 20 20 19 18 18 17 17 17 16 15 15 14 14 14 14 14 14 13 13 13 12 12 12 12 12 12 12 12 12 12 11 11 11 10 10 9 9 9 9 9 9 9 9 9 9 9 9 9 9 9 9 9 9 9 9 8 8 8 9 9 9 9 8 8 8 8 7 7 7 7 7 8 8 8 8
17 17 18 19 19 19 20 20 20 20 20 19 18 18 17 17 17 17 16 15 14 14 15 14 14 14 14 13 13 12 12 12 12 12 12 12 11 11 11 11 11 11 11 10 10 9 9 9 9 9 8 8 8 8 8 8 8 8 9 9 8 9 9 8 8 8 8 8 8 8 9 9 9 8 8 8 8 8 8 8 8 8 8 8 8
16 17 18 18 19 19 19 19 19 19 19 18 17 17 17 17 17 16 15 15 15 15 14 14 14 14 13 13 13 12 12 12 12 12 11 11 11 11 11 10 10 10 10 10 10 9 9 9 9 8 8 8 8 8 8 8 8 8 8 8 8 8 8 8 8 8 8 8 8 8 9 9 9 9 9 9 9 9 9 9 9 9 9 9 9
16 17 18 18 18 18 19 19 19 18 18 18 17 17 17 17 17 16 15 15 15 15 14 14 14 13 13 13 13 12 12 12 12 12 11 11 11 10 10 10 10 10 10 10 10 9 9 9 9 8 8 8 7 7 7 7 7 7 8 8 8 8 8 8 8 8 8 8 8 8 8 9 9 10 9 9 9 9 9 9 9 9 9 9 9
16 17 17 18 18 18 18 18 18 18 17 17 17 16 16 17 16 15 15 15 15 15 14 14 14 13 13 13 13 12 12 12 12 11 11 11 10 10 10 10 10 10 10 10 10 10 9 9 9 8 8 8 7 7 7 6 6 7 7 7 7 8 8 8 7 8 8 8 8 8 8 8 9 9 9 10 10 10 10 9 9 9 9 9 9
16 17 17 17 17 18 18 18 18 17 17 16 16 16 16 16 16 15 15 15 15 15 14 14 13 13 13 13 12 12 12 12 12 11 11 10 10 10 10 10 10 10 10 9 9 9 9 9 9 8 8 8 8 7 7 6 6 6 6 6 7 7 8 8 7 8 8 8 8 8 8 8 8 9 9 9 9 9 9 9 9 9 9 9 9
16 17 17 16 17 18 17 17 17 16 16 16 16 16 16 16 15 15 15 15 15 15 14 14 13 13 13 13 12 12 12 12 11 11 11 10 10 10 10 10 10 10 9 9 9 9 9 9 9 8 8 8 7 7 7 7 6 6 6 6 7 7 7 7 8 8 8 8 8 8 8 8 8 8 8 9 9 9 9 9 9 8 8 8 8
16 17 17 16 17 17 17 17 17 16 16 16 16 16 16 16 15 15 15 15 15 14 14 13 13 13 13 13 12 12 12 11 11 11 10 10 10 10 10 10 10 9 9 9 9 9 9 9 9 8 8 8 7 7 7 7 7 6 6 6 6 7 7 7 7 7 7 7 7 7 7 7 7 8 8 8 8 9 9 8 8 8 8 7 7
16 17 17 16 17 17 16 16 16 16 16 16 16 16 16 15 15 15 14 14 14 14 13 13 13 13 13 12 12 11 11 11 11 11 11 10 10 10 10 10 9 9 9 9 9 9 9 9 9 8 8 8 7 7 7 7 7 7 6 6 6 6 6 7 7 7 7 7 7 7 7 7 7 7 7 7 7 8 8 8 8 8 8 7 7
16 17 17 16 17 16 16 16 16 16 16 16 16 16 15 15 14 14 14 14 14 13 13 13 12 12 12 12 12 11 12 12 11 11 11 10 10 10 9 9 9 9 9 9 9 9 9 9 9 8 8 8 8 7 7 7 7 7 6 6 6 6 6 6 6 7 7 7 6 6 6 6 6 6 7 7 7 7 7 8 8 8 8 8 7
16 16 16 16 16 16 16 16 16 16 16 16 16 15 15 14 14 14 14 13 13 13 13 12 12 12 12 12 12 12 12 12 12 11 11 10 10 10 9 9 9 9 9 9 9 9 9 9 9 9 8 8 7 7 7 7 7 7 6 6 6 6 6 6 5 6 6 6 6 6 6 6 6 6 6 7 6 6 7 7 8 8 8 8 7
16 15 16 16 16 16 16 15 15 16 16 16 15 15 15 14 13 13 13 13 13 13 13 12 12 12 12 13 13 13 13 12 12 12 11 11 10 10 10 10 10 9 9 9 9 9 9 9 9 9 9 8 8 7 7 7 7 7 6 6 6 6 5 5 5 5 5 5 5 5 6 6 6 6 6 6 6 6 6 6 7 7 7 7 7
15 15 15 16 16 16 16 15 15 15 16 15 15 15 14 14 13 13 13 13 13 12 12 12 12 12 12 12 13 13 13 12 12 12 12 11 11 11 11 10 10 10 9 9 9 9 9 9 9 9 9 9 9 8 8 8 7 7 6 6 6 5 5 5 5 4 4 4 4 5 5 5 5 6 5 5 6 6 6 6 6 6 7 7 7
15 15 15 15 16 16 16 15 15 15 15 15 15 14 14 13 13 13 13 13 12 12 11 11 12 12 12 12 12 12 12 12 12 12 12 12 12 12 11 11 10 10 10 10 10 10 10 10 10 10 11 11 10 10 9 9 8 8 7 7 6 6 5 5 4 4 4 4 4 4 4 4 5 5 5 5 5 5 5 6 6 6 6 6 6
15 15 15 15 15 16 15 15 15 15 15 15 14 14 14 13 13 13 13 13 12 12 11 11 11 11 11 11 11 11 11 11 11 12 12 13 13 12 12 11 11 11 11 11 11 11 11 11 11 11 12 11 11 11 11 10 9 9 8 7 7 7 6 5 5 4 3 3 3 3 3 4 4 4 4 5 5 5 5 5 5 5 5 5 6
15 15 15 15 15 15 15 15 15 15 15 15 14 14 14 14 13 13 13 12 12 11 11 11 11 11 11 11 11 11 11 11 11 12 12 12 12 12 12 12 11 11 11 12 12 12 11 11 11 11 11 11 11 11 11 11 10 10 9 8 8 7 7 6 5 4 4 3 3 3 3 3 3 4 4 4 5 5 5 5 5 5 5 5 5
14 15 15 15 15 15 15 15 15 15 15 14 14 14 14 14 14 14 13 12 12 11 11 11 11 10 10 10 10 10 10 11 11 11 12 12 12 11 11 11 11 11 11 11 11 11 11 11 11 11 11 11 11 11 11 11 11 10 9 9 9 8 7 6 6 5 4 3 3 3 2 3 3 3 3 4 4 5 5 5 5 5 5 5 5
14 15 15 15 15 15 15 15 15 15 15 14 14 14 14 14 14 14 13 12 11 11 11 11 10 10 9 10 10 10 10 10 10 11 11 11 11 11 11 11 11 11 11 11 10 10 10 10 10 10 10 10 11 11 11 11 10 9 9 9 9 8 8 7 6 6 5 4 3 3 3 3 2 3 3 4 4 4 5 5 5 5 5 5 4
14 15 15 15 15 15 15 15 15 15 15 15 14 14 14 14 14 14 13 12 11 11 11 10 10 9 9 9 9 9 9 9 9 10 10 10 10 10 10 10 10 10 10 10 9 9 9 9 9 9 9 9 10 10 10 10 10 9 9 8 8 8 8 7 6 6 5 4 3 3 3 3 2 2 3 3 4 4 4 5 5 5 5 5 4
14 15 15 16 15 15 15 15 16 15 15 15 15 14 14 14 14 13 12 12 11 11 11 10 10 9 9 9 9 9 9 9 9 9 9 9 9 9 9 9 9 9 9 9 8 8 8 8 8 8 8 9 9 9 9 9 9 9 8 8 8 8 8 7 7 6 5 5 4 3 2 2 2 2 2 3 3 3 4 4 4 4 4 4 4
14 15 15 16 15 15 16 16 16 16 16 15 15 14 15 14 14 13 12 12 11 11 11 10 9 9 9 8 8 8 8 8 8 8 8 8 8 8 8 8 8 8 8 8 7 7 7 7 7 7 8 8 8 8 9 9 9 8 8 8 8 8 7 7 6 6 5 5 4 3 2 2 2 2 2 3 3 3 3 4 4 4 4 4 4
15 15 15 16 16 15 16 16 16 16 16 15 15 15 15 14 14 13 12 12 12 11 11 10 9 8 8 8 8 8 8 8 7 8 8 8 8 8 7 7 7 7 7 7 7 6 6 6 6 6 7 7 7 8 8 8 8 8 8 7 8 8 7 7 6 5 5 4 4 4 3 2 2 2 2 3 3 3 3 3 3 4 4 4 4
15 15 16 16 16 16 16 17 16 16 16 15 15 15 15 15 14 13 13 12 12 11 10 10 9 8 8 8 8 7 7 7 7 7 7 7 7 7 7 6 6 6 6 6 5 5 5 5 5 6 6 7 7 7 8 8 8 8 7 7 7 7 7 7 6 5 5 4 3 3 3 2 2 2 2 2 3 3 3 3 3 3 3 3 3
15 15 16 16 17 17 17 17 17 17 16 16 15 15 15 15 14 13 13 12 12 11 10 10 9 8 8 7 7 7 6 6 6 6 6 6 6 6 6 6 5 5 5 4 4 4 4 4 5 5 5 6 6 7 7 8 8 7 7 7 7 7 7 6 6 6 5 4 3 2 2 2 2 2 2 2 3 3 3 3 3 3 3 3 3
15 16 16 16 17 17 17 17 17 17 17 16 16 16 15 15 14 14 13 13 12 11 10 9 9 8 8 7 7 6 6 5 5 5 5 5 5 5 5 5 4 4 4 4 4 4 4 4 4 5 5 5 6 6 6 7 7 7 7 7 7 7 7 6 5 5 5 4 3 2 2 1 1 2 2 2 2 2 3 2 2 2 2 3 3
16 16 17 17 18 18 18 18 17 17 17 17 16 16 16 15 14 14 13 13 12 11 10 9 9 8 8 7 7 6 5 5 4 4 5 4 4 4 4 4 4 4 4 4 4 4 4 4 4 5 5 5 6 6 6 6 6 6 6 6 6 6 6 6 5 5 4 4 3 3 2 1 1 2 2 2 2 2 2 2 2 2 2 2 3
17 17 17 18 18 19 19 18 18 18 17 17 16 16 15 15 14 14 13 12 11 11 10 9 9 8 8 7 7 6 5 5 4 4 4 4 3 3 3 3 3 3 3 3 4 4 4 4 4 5 5 5 5 5 6 6 6 6 6 6 6 6 6 6 5 4 3 3 3 3 2 2 1 1 2 2 2 2 2 2 2 2 2 2 2
18 18 18 18 19 19 19 19 19 18 18 17 17 16 15 15 14 14 13 12 11 11 10 9 9 8 8 7 7 6 5 4 4 4 4 3 3 3 3 3 3 3 3 4 4 4 4 4 4 5 5 5 5 5 6 6 6 6 6 6 6 6 5 5 5 4 3 2 2 2 2 2 1 1 1 2 2 2 2 2 2 2 2 2 2
19 19 19 19 19 19 19 19 19 19 18 18 17 16 15 15 14 14 13 12 11 11 10 9 9 8 8 7 7 6 5 4 4 4 3 3 2 2 2 2 3 3 3 4 4 4 4 4 5 5 5 5 5 5 6 6 6 6 6 6 6 5 5 5 5 4 3 2 2 2 2 1 1 1 1 1 2 2 2 2 2 2 2 2 2
20 20 20 19 20 20 20 19 19 19 18 18 17 16 15 15 14 13 13 12 12 11 10 10 9 8 8 7 6 6 5 4 4 3 3 2 2 2 2 2 3 3 3 4 4 4 4 5 5 5 5 5 6 6 6 6 5 5 6 6 6 5 5 5 5 4 3 3 2 2 2 1 1 1 0 1 2 2 2 2 2 2 2 2 2
20 21 20 20 21 20 20 20 20 19 18 18 17 16 16 15 14 14 13 12 12 11 10 10 9 8 8 7 7 6 5 4 4 3 3 2 1 1 2 2 3 3 3 4 4 4 5 5 5 5 5 5 6 6 6 6 5 5 5 6 5 4 4 4 4 4 3 3 2 2 2 1 1 1 0 0 1 2 3 3 3 3 3 3 3
20 21 21 21 21 20 20 20 20 19 19 18 17 16 16 15 14 14 13 12 12 11 10 10 9 9 8 8 7 6 6 5 4 3 2 1 1 1 1 2 3 3 3 4 4 4 5 5 6 6 6 6 6 6 6 6 6 5 5 5 5 4 4 4 3 3 3 3 2 2 2 1 0 0 0 0 1 1 2 3 3 3 3 4 4
20 21 22 22 21 21 20 20 20 20 19 18 17 17 16 16 15 14 13 12 12 11 10 10 10 9 9 8 7 7 6 5 4 3 2 1 1 1 2 2 3 3 3 4 4 5 5 5 6 6 7 7 7 7 6 6 6 6 5 5 4 3 4 3 3 3 3 2 2 2 2 1 1 1 1 1 1 1 2 3 3 4 4 4 5
20 21 22 22 21 21 20 20 20 20 19 19 18 17 16 16 14 14 13 12 12 11 11 10 10 10 9 8 8 7 6 6 5 4 3 2 1 1 2 2 3 3 4 4 4 5 5 5 6 6 7 7 7 7 6 6 6 6 5 5 4 3 3 3 2 2 2 2 2 3 2 2 1 1 2 2 2 2 2 2 3 4 4 5 5
21 21 22 22 22 21 21 20 20 20 19 19 18 17 16 15 15 14 13 12 12 11 11 11 11 10 10 9 8 8 7 6 5 4 3 2 2 2 2 3 3 3 4 4 5 5 5 6 6 6 7 7 7 6 6 7 6 6 5 5 4 3 3 3 2 2 2 2 2 3 3 2 1 1 1 2 2 2 3 3 3 4 4 5 6
21 21 22 22 22 21 21 20 20 20 19 19 18 17 16 16 15 14 13 13 12 12 12 11 11 11 10 9 9 8 7 6 6 5 4 3 2 2 3 3 3 3 4 5 5 5 5 6 6 6 6 7 7 7 7 7 6 6 5 4 3 3 3 2 2 2 2 2 2 2 2 2 2 2 2 2 2 3 3 3 4 4 5 5 6
21 22 22 22 22 21 21 21 20 20 20 19 18 17 17 16 15 14 13 13 13 12 12 12 12 11 11 10 9 8 8 7 6 5 4 3 2 3 3 3 4 4 4 5 5 5 5 6 5 6 6 6 7 6 6 6 6 6 5 4 3 3 3 2 2 2 2 2 2 2 2 2 2 2 2 2 2 3 3 3 4 4 5 5 6
21 22 23 23 23 22 21 21 21 20 20 19 18 18 17 16 15 15 14 13 13 13 13 13 12 12 11 11 10 9 8 8 7 6 4 3 3 3 3 4 4 4 4 5 5 5 5 5 5 5 5 6 6 6 6 6 6 6 5 3 2 2 2 2 3 3 3 3 2 2 3 3 3 3 3 3 3 3 3 3 4 4 4 5 5
22 22 23 23 23 23 22 21 21 21 20 20 19 18 17 17 16 15 14 14 13 13 13 13 12 12 12 11 10 9 9 8 7 6 5 4 3 3 4 4 4 4 4 5 5 5 5 5 5 5 5 6 6 6 6 6 6 6 5 4 3 3 2 2 3 3 2 2 2 2 2 3 3 3 4 4 4 3 3 3 4 4 5 5 5
22 23 23 24 24 23 23 22 21 21 21 20 20 19 18 17 16 15 14 14 13 13 13 13 13 12 12 12 11 10 9 9 8 6 5 4 4 3 4 4 4 4 4 5 4 4 4 4 4 4 5 5 6 5 5 5 5 5 4 3 3 3 2 3 3 2 2 2 2 2 2 3 3 4 4 4 4 4 3 4 4 4 5 5 6
22 23 23 24 24 23 23 22 22 22 21 21 20 19 19 18 17 16 15 14 13 13 13 13 13 13 12 12 11 11 10 9 8 7 6 5 4 4 4 4 4 4 4 4 4 4 4 3 4 4 5 5 5 5 5 5 5 4 3 3 3 3 3 3 2 2 1 1 2 2 2 3 3 4 4 4 4 4 4 4 4 5 5 6 6
23 23 24 24 24 24 23 23 22 22 21 21 21 20 19 19 18 16 15 14 13 13 14 14 14 13 13 13 12 12 11 10 9 8 7 6 5 5 4 4 4 4 4 4 4 3 3 3 3 4 4 4 4 4 5 5 4 3 3 3 3 3 3 3 2 1 1 1 1 2 2 3 3 4 4 4 4 4 4 4 5 5 5 6 6
24 24 24 24 24 24 24 23 23 22 21 21 21 20 19 19 18 17 16 15 15 14 14 14 14 14 14 13 13 12 12 11 10 9 8 7 6 6 5 5 4 4 4 4 4 3 3 3 3 3 4 4 4 4 5 5 4 3 3 3 3 2 2 2 2 1 1 1 1 2 2 3 3 3 4 4 4 4 4 4 5 5 5 6 6
24 24 24 24 24 24 24 24 23 22 22 21 21 20 20 19 18 17 17 16 15 15 14 14 14 14 14 14 13 13 12 11 11 10 9 8 7 7 6 6 5 5 5 4 4 4 3 2 3 3 3 4 4 5 5 4 3 3 2 2 3 3 2 2 2 2 2 2 2 2 3 3 3 4 4 4 4 4 4 4 5 5 5 5 6
24 24 24 24 24 24 24 24 23 22 22 21 21 21 20 19 19 18 18 17 16 15 14 14 14 14 14 14 14 14 13 12 11 10 10 9 8 8 7 7 6 6 5 5 5 4 3 2 3 3 3 4 4 5 5 4 3 3 3 3 3 3 3 2 2 2 2 2 2 2 3 3 3 4 4 4 4 4 5 5 5 5 5 5 6
24 24 24 25 25 25 24 24 24 23 22 22 22 22 21 20 20 19 18 17 16 15 15 15 14 14 14 14 14 14 14 13 12 11 10 10 9 8 8 8 7 7 6 6 5 4 3 3 3 3 3 4 4 4 4 3 3 3 3 3 3 3 3 2 2 2 2 3 2 3 3 3 3 4 4 5 5 5 5 5 6 6 6 6 7
24 25 25 25 25 25 25 25 24 23 23 23 23 23 22 21 20 20 19 18 17 16 16 15 15 15 15 15 14 14 14 14 13 12 12 11 10 9 9 8 8 8 7 7 6 4 4 3 3 3 3 3 4 4 4 3 3 3 4 4 4 4 3 3 3 2 3 3 3 3 3 4 4 5 5 5 6 6 6 6 6 7 7 7 7
24 25 25 25 25 25 25 25 25 24 23 23 23 23 23 22 21 20 20 18 17 17 16 16 16 16 16 15 15 15 14 14 14 13 13 12 11 10 10 9 9 8 8 7 6 5 4 4 3 3 3 3 4 3 3 3 4 4 4 4 4 4 4 3 3 3 3 4 4 4 4 4 5 5 6 6 6 7 7 7 7 8 8 8 8
23 24 25 25 25 25 25 25 25 24 24 24 24 24 23 22 22 21 21 19 18 18 17 17 17 16 16 16 16 15 15 15 15 14 14 13 12 11 11 10 9 9 9 8 7 6 5 4 3 3 3 3 3 3 2 3 3 4 4 4 4 4 4 4 4 3 3 4 4 5 5 5 6 6 6 7 7 8 8 9 9 9 9 9 10
Wind_Direction
120 120 124 125 124 127 127 127 128 129 129 128 127 125 123 121 119 119 118 116 114 112 110 109 108 108 107 106 105 104 104 103 102 101 101 100 99 98 96 95 95 96 97 98 100 100 100 99 97 94 90 87 86 86 87 87 86 83 79 77 74 73 74 77 82 86 87 89 92 95 97 99 100 103 110 114 118 121 125 131 137 143 148 152 153
124 124 127 127 125 127 128 128 128 129 130 128 126 125 123 121 120 118 117 115 113 111 111 110 109 107 105 104 104 103 103 103 103 102 102 101 99 97 95 93 93 93 94 95 96 97 97 96 94 92 89 86 87 87 86 86 85 82 78 76 74 74 75 78 82 86 88 89 92 95 95 96 97 99 103 108 113 117 120 126 131 136 141 146 149
126 126 129 129 127 128 129 129 129 131 130 128 127 126 124 121 120 118 116 114 113 113 112 110 107 106 104 103 103 102 102 103 103 103 102 100 99 96 95 93 92 91 91 92 93 93 94 94 93 91 89 88 89 88 86 85 84 81 78 75 74 74 76 79 82 86 89 91 93 96 94 93 94 98 101 105 110 114 117 121 125 130 135 141 144
128 128 130 130 129 129 130 129 130 131 130 129 128 126 124 122 121 119 116 115 114 113 110 108 106 105 104 103 102 101 101 102 103 103 102 100 98 96 94 93 91 90 89 90 90 91 92 93 93 92 90 88 88 87 85 85 85 82 79 76 75 74 75 79 83 86 90 93 95 96 95 93 93 96 99 102 106 111 114 118 122 126 131 136 140
130 130 131 131 130 130 131 131 131 131 132 131 130 127 124 123 122 119 117 116 114 111 109 107 106 105 104 103 101 100 100 101 102 103 101 99 97 96 94 92 91 89 88 89 90 90 91 92 92 92 90 87 87 86 85 85 85 83 80 76 74 74 74 78 82 86 89 94 97 97 97 95 95 96 97 99 102 106 110 114 119 123 127 131 135
132 132 132 132 132 132 134 135 134 132 134 134 131 128 126 125 122 120 118 116 113 109 108 107 105 105 104 103 101 99 99 100 101 101 99 98 97 96 94 92 91 90 89 88 89 89 89 90 91 91 90 88 86 86 86 85 84 81 79 75 73 72 72 77 82 87 91 95 100 101 100 99 98 97 97 98 99 102 106 111 115 120 124 126 130
135 134 134 134 134 135 136 136 136 135 136 135 131 129 128 126 123 121 118 115 112 109 108 107 106 105 104 102 100 98 98 99 99 99 98 96 95 95 94 93 92 91 89 88 88 88 88 89 90 90 89 88 86 85 85 85 82 79 78 76 72 70 70 75 83 88 93 97 101 103 102 102 101 100 98 96 97 100 105 109 112 117 121 123 125
138 136 136 136 136 137 137 138 138 138 136 134 132 130 129 127 124 121 119 115 112 110 109 107 106 105 104 101 99 98 97 98 98 98 96 94 94 94 94 94 93 91 90 89 88 87 87 87 88 88 87 86 84 81 80 79 79 78 78 78 75 72 70 74 83 89 93 97 101 104 104 104 104 103 102 99 98 99 104 108 111 116 120 122 123
140 138 138 137 137 138 138 139 139 139 138 135 133 132 131 128 125 122 119 116 114 112 110 107 106 104 102 101 99 97 97 97 97 96 95 94 94 95 95 94 93 91 89 88 88 86 85 84 84 85 84 82 79 76 74 74 75 77 78 80 79 77 75 75 82 89 93 96 100 104 106 107 107 106 106 104 101 100 104 107 111 116 120 122 122
141 140 141 140 140 140 140 140 140 140 139 137 135 135 133 130 126 123 121 118 115 113 110 108 105 103 102 101 98 96 96 96 96 96 95 95 95 95 96 95 92 90 89 88 87 85 83 81 80 82 81 78 74 71 71 72 73 77 78 79 80 80 80 81 83 87 92 97 100 104 107 109 108 108 109 107 105 103 105 107 110 114 118 121 122
143 143 143 143 143 143 142 142 142 142 141 139 138 137 135 131 128 126 123 120 117 113 111 109 106 104 102 100 99 97 96 95 95 94 94 94 94 95 94 93 92 90 89 88 87 85 81 78 78 79 80 77 73 70 67 67 69 74 76 76 77 79 83 87 87 85 90 98 101 103 108 110 108 109 111 109 107 105 105 108 110 113 116 119 122
144 145 146 146 146 145 144 143 144 144 142 141 140 139 137 133 130 128 125 121 118 115 112 109 106 104 101 100 99 98 96 95 93 92 92 93 93 93 92 91 90 89 89 89 87 83 79 77 77 78 78 76 73 69 66 64 65 68 70 71 74 78 84 89 90 87 90 97 101 104 109 111 110 114 114 112 110 107 107 109 112 114 115 116 119
146 146 148 148 148 147 146 145 146 145 144 143 143 142 139 136 133 131 128 124 121 118 114 110 107 103 100 99 99 98 96 93 91 89 90 91 92 91 91 90 89 89 88 88 86 82 79 78 77 77 76 74 72 68 65 63 63 64 66 68 72 76 82 87 90 90 91 96 100 104 110 110 113 118 118 117 116 113 112 113 115 116 116 115 116
148 149 150 151 150 149 148 148 148 147 146 146 146 144 142 139 137 134 130 127 124 120 116 111 108 104 101 98 97 96 94 92 89 88 87 88 90 91 92 91 91 91 89 88 87 84 82 79 77 76 75 73 70 67 64 62 61 63 64 66 70 73 77 83 86 90 93 97 101 104 111 111 115 120 121 122 122 120 117 117 120 120 119 119 118
152 152 152 153 152 151 151 150 150 149 149 149 148 147 145 143 139 137 133 131 127 123 118 113 110 106 101 98 97 96 93 92 89 87 86 86 89 91 92 91 91 91 90 89 87 85 83 80 78 77 75 73 71 68 65 62 61 62 63 63 66 68 69 74 80 88 94 99 104 107 112 114 118 124 126 127 126 124 123 123 125 124 123 124 125
156 157 155 155 154 153 153 153 153 152 152 152 151 150 148 146 143 139 136 134 130 125 120 116 113 108 103 99 98 96 93 91 89 88 87 86 88 90 91 91 91 91 90 90 88 87 85 83 81 78 76 73 70 68 65 63 62 61 61 61 63 65 64 67 73 82 92 99 106 110 114 117 122 128 131 132 130 128 128 129 128 126 126 128 131
161 161 159 158 157 157 156 155 156 155 155 154 153 153 151 149 146 142 139 136 132 128 123 119 115 110 104 101 100 98 94 92 91 90 88 88 88 89 90 92 92 92 91 91 90 89 87 86 84 80 76 73 70 68 66 64 64 63 61 61 62 64 62 63 68 75 86 97 106 114 120 122 126 131 134 135 134 135 135 135 135 132 129 130 133
165 165 163 161 160 160 159 158 158 158 158 157 156 155 153 151 148 145 143 139 135 130 126 122 118 113 107 104 103 101 97 94 93 92 91 90 89 90 91 92 94 93 93 92 91 90 88 87 84 80 76 72 68 66 65 64 63 63 62 62 63 64 62 61 64 69 77 88 102 114 124 130 133 135 138 138 137 139 141 141 142 140 136 133 133
168 168 166 165 164 163 162 161 161 161 161 159 158 157 155 154 151 149 145 142 138 134 129 125 122 118 111 107 107 105 101 98 96 93 92 92 91 91 91 93 94 94 94 94 92 90 88 86 83 78 74 69 65 62 61 60 60 60 60 61 62 62 61 62 62 63 68 76 93 108 121 136 141 140 143 145 144 142 143 146 146 145 142 136 134
171 171 169 168 167 165 165 165 164 164 163 162 161 159 157 155 154 151 148 145 142 137 133 130 126 121 115 112 111 109 105 102 99 96 95 93 92 91 91 92 93 94 94 94 93 90 87 85 81 76 71 66 62 59 57 56 56 55 56 58 57 56 57 59 61 62 63 67 81 98 116 134 144 144 148 149 149 148 148 149 148 149 147 142 137
174 174 172 170 169 168 168 167 166 166 166 165 163 161 159 157 155 153 150 148 144 140 137 133 129 124 119 116 115 112 108 105 101 99 97 94 93 92 91 91 92 93 93 93 92 89 85 81 77 73 67 62 58 54 52 52 53 52 51 52 51 51 51 54 57 60 61 64 72 88 111 127 137 143 152 153 152 152 150 151 153 155 153 151 147
176 175 175 173 171 170 170 169 169 169 167 166 165 163 160 158 157 155 153 151 147 143 140 137 131 125 122 120 118 115 111 108 104 101 99 96 94 91 90 90 91 92 92 92 90 86 80 76 72 67 62 57 52 48 45 46 49 51 50 49 48 48 48 49 52 57 59 61 67 80 106 122 127 136 150 156 158 156 154 155 158 161 159 158 158
177 176 176 175 173 172 172 171 170 170 169 167 167 165 162 160 158 156 154 152 149 146 144 139 134 129 125 123 121 118 114 112 108 104 102 100 96 91 89 88 90 90 90 89 87 82 75 71 67 61 57 51 46 42 39 40 44 48 50 49 48 47 46 46 47 52 58 59 64 75 98 116 122 132 142 152 163 165 162 161 163 166 166 167 170
179 176 176 176 174 174 173 173 172 171 169 168 168 166 164 162 160 159 157 154 152 150 147 143 139 135 130 127 124 122 118 115 111 107 104 102 98 95 92 89 89 89 88 86 84 80 71 66 61 55 50 44 40 38 37 36 38 43 47 49 48 47 45 43 42 47 53 56 61 70 89 111 118 126 134 145 161 168 169 169 170 171 173 176 179
179 178 176 176 176 175 175 174 173 171 169 169 168 167 165 163 161 161 159 157 156 153 150 148 144 141 137 132 130 127 124 119 114 110 107 105 100 97 95 90 88 87 85 83 80 75 66 59 51 47 42 38 35 33 34 33 35 39 42 44 43 41 39 39 39 42 48 50 58 68 80 104 120 126 133 144 156 164 170 174 174 175 179 184 186
179 180 177 177 177 176 175 174 173 172 170 169 169 167 166 164 162 162 161 160 158 156 153 152 150 147 144 139 137 134 131 126 118 113 111 107 102 98 94 90 87 86 83 78 74 67 58 48 39 37 33 31 28 28 29 28 30 33 34 33 31 30 30 33 36 37 43 47 53 68 77 96 127 136 139 147 151 154 161 169 176 182 184 189 195
181 181 178 177 178 176 176 174 173 172 171 170 169 168 167 166 164 163 163 162 161 159 156 155 154 151 149 146 144 142 137 132 124 118 115 109 103 98 92 87 85 81 75 67 60 51 41 31 25 22 19 21 22 24 24 22 23 26 25 22 20 22 22 24 30 32 38 45 49 61 73 85 126 150 152 151 156 154 151 157 174 188 192 197 202
183 181 179 178 179 177 176 176 174 172 172 172 170 169 168 167 166 165 165 165 163 162 161 160 159 156 154 152 150 148 145 138 130 124 119 113 104 97 89 81 77 69 63 55 46 36 26 19 16 14 11 13 16 18 17 14 14 16 17 16 13 15 18 20 25 29 35 43 46 52 66 76 108 152 161 156 159 162 156 154 166 182 196 206 207
185 182 180 180 180 178 178 177 176 174 173 172 171 169 169 168 167 168 168 167 167 166 165 164 163 162 160 159 158 156 153 145 136 129 123 117 103 94 85 74 65 56 49 41 34 26 18 14 11 9 8 10 11 10 6 5 5 5 5 8 9 10 13 17 19 22 30 39 42 49 64 77 95 137 164 169 168 170 174 173 176 185 194 207 211
186 183 181 181 180 179 179 178 177 175 174 173 172 171 170 169 170 171 171 170 171 171 170 170 169 168 166 166 166 164 161 152 142 135 127 118 105 93 80 66 57 48 39 30 25 20 14 10 6 3 4 7 6 2 358 356 357 356 355 356 0 5 7 11 13 14 22 33 38 51 65 84 104 120 154 172 180 182 189 192 195 203 205 209 212
186 184 183 182 181 179 179 179 178 177 176 175 175 174 173 172 173 174 174 174 175 175 175 175 174 172 171 171 171 170 167 160 151 142 133 122 107 94 72 56 45 37 30 24 21 17 11 6 2 360 359 360 358 356 352 349 349 349 347 344 349 0 6 6 7 11 19 24 28 46 57 80 114 121 137 170 186 195 200 207 211 216 220 219 217
187 185 184 182 181 180 180 180 180 179 178 178 177 177 176 176 176 177 177 178 178 178 179 179 178 177 176 176 175 173 171 165 158 149 140 128 106 85 56 39 29 23 18 16 14 9 5 3 1 360 357 354 351 348 344 342 340 341 341 340 343 352 2 5 6 10 17 15 13 30 41 61 99 104 79 173 197 206 207 216 225 228 233 234 231
188 186 185 183 182 181 181 181 181 181 180 181 180 180 179 180 180 181 181 181 181 182 183 183 183 183 181 181 180 177 173 168 161 154 147 136 107 69 34 17 13 11 6 5 5 1 0 359 358 356 353 350 347 343 339 335 332 336 337 335 337 342 353 4 7 8 11 7 4 18 28 37 74 93 84 153 211 218 218 225 233 238 245 247 249
188 187 186 184 183 182 183 183 183 183 183 184 183 183 183 183 184 184 185 185 185 186 186 187 188 188 186 186 184 180 176 172 167 163 158 155 124 39 9 359 359 358 355 356 356 354 354 354 353 351 349 347 345 342 339 334 328 329 333 334 335 336 343 357 5 2 1 360 3 14 16 4 332 301 315 284 245 231 228 234 240 246 252 255 258
188 188 187 185 184 184 185 185 185 186 186 187 186 186 186 187 188 188 188 188 188 189 189 190 191 191 190 189 187 183 181 178 178 178 179 190 224 321 339 346 350 348 345 347 347 348 349 350 351 349 348 347 345 344 341 337 331 328 333 337 338 331 334 348 1 358 352 354 3 7 3 342 292 276 294 289 280 266 244 241 243 250 256 260 261
189 187 186 186 185 185 187 187 187 187 188 189 189 189 190 190 191 191 191 191 191 192 192 194 194 193 193 192 189 187 187 185 187 191 197 214 243 292 321 333 341 341 339 341 339 340 343 346 349 349 349 347 344 343 341 339 337 335 336 339 338 328 328 338 350 353 345 346 359 4 8 1 319 282 293 290 289 287 274 261 254 256 261 264 266
190 188 187 187 187 187 189 189 189 189 189 191 191 191 192 193 194 195 195 196 196 197 197 198 197 196 196 194 192 191 191 191 193 199 206 224 249 284 307 318 327 332 335 337 334 332 336 340 344 346 348 346 342 342 342 341 339 337 333 336 340 331 326 327 328 339 332 331 352 6 19 22 16 345 319 299 296 294 286 277 269 268 270 273 274
191 190 189 189 189 189 191 191 191 191 191 192 193 193 194 196 197 198 199 200 200 200 200 201 201 200 200 199 196 195 196 197 199 205 213 229 258 286 299 308 314 322 329 332 331 330 333 336 341 346 348 346 343 343 343 342 343 340 335 337 343 335 326 316 307 317 311 312 337 359 11 19 18 10 352 328 313 305 297 286 278 278 280 283 284
193 192 192 191 191 191 193 193 193 193 194 195 195 195 196 197 199 199 201 202 202 202 203 204 204 203 203 202 200 199 200 202 204 211 219 236 263 285 295 303 307 315 323 329 332 331 333 336 341 346 350 349 347 348 348 348 350 350 347 347 350 345 336 310 300 305 291 293 313 336 348 357 3 0 349 336 324 314 308 298 291 289 288 290 291
196 194 194 193 193 193 194 195 195 195 196 197 196 197 198 199 200 200 201 202 202 203 205 206 206 206 206 205 203 202 205 206 209 215 225 242 264 283 294 299 303 311 319 326 330 331 333 337 340 342 346 350 351 353 353 353 356 358 1 3 3 2 355 326 312 306 288 283 296 318 330 338 344 341 333 327 319 314 310 303 301 300 299 299 298
197 197 195 195 195 196 196 197 197 198 198 199 198 199 199 199 200 200 201 202 202 204 206 207 207 207 207 206 205 205 208 211 214 220 231 248 266 282 292 296 301 307 315 322 326 328 331 333 334 336 340 345 350 353 354 356 360 4 11 18 17 10 359 339 325 313 293 283 290 304 319 328 334 333 328 323 318 315 311 307 305 305 305 305 304
199 198 197 197 197 197 198 198 199 200 201 201 201 201 201 201 201 201 202 202 203 205 206 207 208 209 209 208 207 208 212 215 219 224 234 249 266 281 289 294 300 305 312 317 318 321 324 325 328 333 340 346 350 353 354 357 1 4 12 20 20 11 358 344 333 322 298 282 289 299 314 322 326 329 329 327 326 322 317 311 307 306 306 304 303
202 201 199 198 198 198 199 199 200 202 202 202 202 202 203 204 204 204 204 204 206 208 209 210 211 211 211 210 209 211 214 218 222 228 236 248 263 276 285 291 297 302 308 311 311 314 317 319 325 333 344 354 357 357 355 355 358 3 6 10 13 6 357 349 343 340 319 289 284 294 307 313 317 321 321 323 326 323 318 312 307 306 305 303 303
203 203 201 199 199 199 200 200 201 202 203 203 203 203 205 206 207 208 208 209 211 213 214 214 214 214 213 212 212 214 218 222 225 230 236 246 258 267 277 285 291 296 300 302 304 308 310 316 326 336 348 358 4 6 359 354 355 2 3 5 9 360 356 2 5 10 355 316 286 293 301 302 307 310 309 312 316 317 316 312 309 308 307 307 307
205 204 202 201 200 200 200 201 202 202 203 204 204 204 206 207 208 209 210 212 213 215 215 216 215 215 215 214 215 218 221 224 228 232 238 245 253 259 267 275 282 288 290 292 297 299 303 315 331 340 348 357 5 7 360 354 354 359 4 12 16 6 6 20 21 15 2 330 305 301 300 297 298 300 302 307 313 317 318 317 316 316 315 316 316
206 205 203 202 202 201 201 201 202 203 204 205 205 206 207 208 208 208 209 211 212 214 215 215 215 216 217 217 219 221 224 227 230 233 238 244 249 253 259 264 271 278 281 284 287 290 296 314 332 340 344 351 360 1 358 357 358 360 5 12 16 18 27 36 21 13 6 340 317 303 298 297 296 296 298 303 311 319 321 323 325 323 323 323 323
205 205 204 204 203 202 202 202 204 205 205 205 206 207 208 209 209 209 210 212 213 215 215 216 217 218 219 221 223 225 226 229 232 234 237 242 246 249 252 257 264 270 273 276 279 281 290 308 324 330 336 343 351 357 358 -0 4 3 4 7 6 12 20 25 16 10 2 344 327 306 296 294 294 293 293 297 304 312 317 322 324 324 324 324 325
205 204 205 205 205 204 204 205 206 207 208 208 208 209 210 210 210 211 213 215 216 216 217 218 220 221 222 223 226 227 228 230 233 235 237 240 243 245 248 253 259 264 265 268 272 275 283 300 313 318 326 336 346 356 1 2 7 10 10 7 1 356 353 348 346 347 345 340 330 311 297 294 293 289 287 291 296 301 306 311 315 317 319 319 321
205 205 205 205 206 206 206 207 208 209 210 210 210 211 212 212 212 213 215 217 218 219 220 220 221 222 223 224 226 228 229 231 233 235 237 239 241 243 246 251 256 259 260 262 265 268 275 286 297 304 314 330 342 354 3 7 10 15 16 12 7 2 352 339 327 316 320 323 320 311 300 298 297 291 288 289 291 294 297 301 306 309 310 311 313
207 207 206 206 207 207 207 209 210 211 211 212 213 213 213 214 215 215 216 217 219 220 221 222 223 225 225 226 227 228 230 231 234 236 237 239 240 241 244 248 252 255 255 256 257 259 264 271 281 288 301 325 338 345 359 10 12 13 16 16 14 11 4 352 336 318 313 312 312 311 304 300 299 297 294 290 290 291 292 294 299 302 304 305 307
208 208 208 208 208 209 209 210 211 211 212 213 214 214 214 215 216 217 218 218 219 220 222 223 224 226 227 228 229 230 231 233 235 237 238 239 239 241 244 246 249 250 251 251 250 251 254 257 266 275 290 317 333 340 353 8 13 10 12 13 11 10 6 359 349 336 326 317 315 314 310 306 303 302 301 296 292 291 290 291 293 296 298 299 301